Regional Weather Roundup
Issued by NWS Cleveland, OH

Home | Current Version | Previous Version | Text Only | Print | Product List | Glossary Off
Versions: 1 2 3 4 5 6 7 8 9 10 11 12 13 14 15 16 17 18 19 20 21 22 23 24 25 26 27 28 29 30 31 32 33 34 35 36 37 38 39 40 41 42 43 44 45 46 47 48 49 50

000
ASUS41 KCLE 221600
RWRCLE
OHIO REGIONAL WEATHER ROUNDUP
NATIONAL WEATHER SERVICE WILMINGTON, OH
1100 AM EST MON DEC 22 2014

NOTE: "FAIR" INDICATES FEW OR NO CLOUDS BELOW 12,000 FEET WITH NO
SIGNIFICANT WEATHER AND/OR OBSTRUCTIONS TO VISIBILITY.

OHZ001>008-015>018-024>027-034-035-043-044-221700-
   NORTHWEST OHIO

CITY           SKY/WX    TMP DP  RH WIND       PRES   REMARKS
DEFIANCE       CLOUDY    31  26  82 E8        30.00F HAZE    WCI  23
FINDLAY        CLOUDY    33  27  78 E8        30.01F HAZE    WCI  26
TOLEDO EXPRESS PTSUNNY   32  26  78 E7        30.05F HAZE    WCI  26
TOLEDO METCALF PTSUNNY   32  25  75 E5        30.07F HAZE    WCI  27
LIMA           MOSUNNY   39  30  70 SE13      29.99F HAZE
$$

OHZ009>014-019>023-028>033-038-089-221700-
   NORTHEAST OHIO

CITY           SKY/WX    TMP DP  RH WIND       PRES   REMARKS
CLE-HOPKINS    MOSUNNY   34  26  72 SE6       30.10F WCI  29
CLE-LAKEFRONT  MOSUNNY   36  26  67 S8        30.08F
CUY CO. ARPT   NOT AVBL
LORAIN-ELYRIA  SUNNY     33  27  78 S6        30.07F WCI  28
ASHTABULA      SUNNY     34  25  69 S10       30.11F WCI  26
AKRON-CANTON   PTSUNNY   35  27  72 SE6       30.07F
WOOSTER        NOT AVBL
MANSFIELD      CLOUDY    31  27  85 SE8       30.04F WCI  23
YOUNGSTOWN     PTSUNNY   32  25  75 SE9       30.09F WCI  24
$$

OHZ042-051>053-060>062-070>072-077>081-221700-
  SOUTHWEST OHIO

CITY           SKY/WX    TMP DP  RH WIND       PRES   REMARKS
CINC-COVINGTON NOT AVBL
CINC-LUNKEN    PTSUNNY   42  33  70 CALM      30.00F
HAMILTON       PTSUNNY   41  32  70 E6        30.00F
DAYTON         NOT AVBL
WRIGHT-PAT AFB NOT AVBL
DAYTON GENERAL PTSUNNY   39  32  76 E7        29.98F
WILMINGTON     MOSUNNY   37  31  78 E5        30.01S
$$

OHZ036-037-039>041-045>050-054>059-063>069-073>076-082>088-221700-
  CENTRAL AND SOUTHEAST OHIO

CITY           SKY/WX    TMP DP  RH WIND       PRES   REMARKS
COLUMBUS       CLOUDY    37  29  72 E6        30.05F
OSU AIRPORT    CLOUDY    35  29  78 SE5       30.04F
BOLTON FIELD   PTSUNNY   36  30  80 E6        30.04F
RICKENBACK AFB NOT AVBL
NEWARK         CLOUDY    33  26  75 NE3       30.06F
MARION         CLOUDY    34  28  79 SE7       30.04F HAZE    WCI  28
LANCASTER      CLOUDY    54  30  40 SE5       30.06F
ZANESVILLE     CLOUDY    34  29  82 E5        30.06F WCI  30
NEW PHILLY     CLOUDY    32  27  81 CALM      30.09F
$$


USA.gov is the U.S. government's official web portal to all federal, state and local government web resources and services.